When you browse on this site, cookies collect data to enhance your experience and personalize the content and advertising you see.
Visit our Privacy Policy to learn more. By continuing to use the site, you agree to this use of cookies and data.
  • In Hungary
  • List of Countries
  • For 7 days
  • Water Temperature
  • Weather Map
  • News
  • Weather Widgets
  • user-avatar
    Login

    Hourly Weather Przejma

    Today, 23 September, Monday

    Time Temperature Precipitation Wind Pressure Humidity
    00:00 +13°C° 0 mm 2 mps 754 mmHg 76%
    01:00 +12°C° 0 mm 2 mps 754 mmHg 80%
    02:00 +11°C° 0 mm 3 mps 754 mmHg 84%
    03:00 +11°C° 0 mm 3 mps 754 mmHg 88%
    04:00 +10°C° 0 mm 3 mps 754 mmHg 92%
    05:00 +11°C° 0 mm 4 mps 755 mmHg 92%
    06:00 +11°C° 0 mm 4 mps 755 mmHg 91%
    07:00 +10°C° 0 mm 5 mps 755 mmHg 90%
    08:00 +12°C° 0 mm 5 mps 755 mmHg 85%
    09:00 +13°C° 0 mm 5 mps 755 mmHg 80%
    10:00 +13°C° 0 mm 5 mps 755 mmHg 74%
    11:00 +15°C° 0 mm 5 mps 755 mmHg 70%
    12:00 +16°C° 0 mm 5 mps 755 mmHg 65%
    13:00 +17°C° 0 mm 5 mps 755 mmHg 60%
    14:00 +17°C° 0 mm 5 mps 755 mmHg 61%
    15:00 +17°C° 0 mm 5 mps 755 mmHg 62%
    16:00 +16°C° 0 mm 5 mps 755 mmHg 62%
    17:00 +15°C° 0 mm 4 mps 755 mmHg 67%
    18:00 +13°C° 0 mm 4 mps 755 mmHg 72%
    19:00 +12°C° 0 mm 4 mps 756 mmHg 77%
    20:00 +11°C° 0 mm 4 mps 756 mmHg 78%
    21:00 +10°C° 0 mm 3 mps 756 mmHg 79%
    22:00 +10°C° 0 mm 3 mps 756 mmHg 81%
    23:00 +9°C° 0 mm 3 mps 756 mmHg 82%

    Tomorrow, 24 September, Tuesday

    Time Temperature Precipitation Wind Pressure Humidity
    00:00 +9°C° 0 mm 3 mps 756 mmHg 84%
    01:00 +8°C° 0 mm 3 mps 756 mmHg 86%
    02:00 +8°C° 0 mm 3 mps 756 mmHg 88%
    03:00 +7°C° 0 mm 3 mps 756 mmHg 89%
    04:00 +7°C° 0 mm 3 mps 755 mmHg 90%
    05:00 +7°C° 0 mm 3 mps 755 mmHg 88%
    06:00 +8°C° 0 mm 3 mps 755 mmHg 85%
    07:00 +8°C° 0 mm 3 mps 755 mmHg 82%
    08:00 +10°C° 0 mm 3 mps 755 mmHg 76%
    09:00 +13°C° 0 mm 3 mps 755 mmHg 69%
    10:00 +16°C° 0 mm 3 mps 755 mmHg 63%
    11:00 +17°C° 0 mm 3 mps 755 mmHg 58%
    12:00 +18°C° 0 mm 3 mps 754 mmHg 54%
    13:00 +20°C° 0 mm 3 mps 754 mmHg 50%
    14:00 +20°C° 0 mm 3 mps 753 mmHg 50%
    15:00 +19°C° 0 mm 3 mps 753 mmHg 51%
    16:00 +19°C° 0 mm 3 mps 753 mmHg 51%
    17:00 +18°C° 0 mm 3 mps 753 mmHg 56%
    18:00 +16°C° 0 mm 3 mps 753 mmHg 61%
    19:00 +13°C° 0 mm 3 mps 753 mmHg 66%
    20:00 +13°C° 0 mm 3 mps 753 mmHg 67%
    21:00 +12°C° 0 mm 3 mps 752 mmHg 68%
    22:00 +12°C° 0 mm 3 mps 752 mmHg 69%
    23:00 +12°C° 0 mm 3 mps 752 mmHg 70%

    Day after tomorrow, 25 September, Wednesday

    Time Temperature Precipitation Wind Pressure Humidity
    00:00 +12°C° 0 mm 3 mps 752 mmHg 71%
    01:00 +12°C° 0 mm 3 mps 752 mmHg 72%
    02:00 +12°C° 0 mm 3 mps 751 mmHg 74%
    03:00 +11°C° 0 mm 3 mps 751 mmHg 76%
    04:00 +11°C° 0 mm 3 mps 751 mmHg 78%
    05:00 +11°C° 0 mm 3 mps 750 mmHg 77%
    06:00 +12°C° 0 mm 4 mps 750 mmHg 76%
    07:00 +12°C° 0 mm 4 mps 750 mmHg 75%
    08:00 +13°C° 0 mm 4 mps 750 mmHg 71%
    09:00 +15°C° 0 mm 4 mps 750 mmHg 67%
    10:00 +17°C° 0 mm 4 mps 750 mmHg 63%
    11:00 +18°C° 0.1 mm 4 mps 749 mmHg 63%
    12:00 +18°C° 0.1 mm 4 mps 749 mmHg 62%
    13:00 +19°C° 0.1 mm 3 mps 749 mmHg 62%
    14:00 +18°C° 0.1 mm 3 mps 748 mmHg 66%
    15:00 +18°C° 0.1 mm 3 mps 748 mmHg 70%
    16:00 +17°C° 0.1 mm 3 mps 748 mmHg 75%
    17:00 +17°C° 0.1 mm 3 mps 748 mmHg 78%
    18:00 +16°C° 0.1 mm 3 mps 748 mmHg 82%
    19:00 +15°C° 0.1 mm 2 mps 748 mmHg 86%
    20:00 +15°C° 0.1 mm 2 mps 748 mmHg 87%
    21:00 +15°C° 0.1 mm 2 mps 748 mmHg 89%
    22:00 +15°C° 0.1 mm 2 mps 748 mmHg 91%
    23:00 +14°C° 0 mm 2 mps 748 mmHg 92%

    26 September, Thursday

    Time Temperature Precipitation Wind Pressure Humidity
    00:00 +14°C° 0 mm 2 mps 748 mmHg 92%
    01:00 +14°C° 0 mm 2 mps 748 mmHg 92%
    02:00 +14°C° 0 mm 2 mps 748 mmHg 93%
    03:00 +13°C° 0 mm 2 mps 748 mmHg 94%
    04:00 +12°C° 0 mm 3 mps 749 mmHg 95%
    05:00 +12°C° 0.1 mm 3 mps 749 mmHg 94%
    06:00 +13°C° 0.1 mm 4 mps 749 mmHg 92%
    07:00 +13°C° 0.1 mm 4 mps 749 mmHg 90%
    08:00 +14°C° 0.1 mm 4 mps 750 mmHg 87%
    09:00 +15°C° 0.1 mm 4 mps 750 mmHg 84%
    10:00 +15°C° 0.1 mm 4 mps 751 mmHg 81%
    11:00 +17°C° 0.4 mm 4 mps 751 mmHg 75%
    12:00 +18°C° 0.4 mm 4 mps 751 mmHg 69%
    13:00 +19°C° 0.4 mm 4 mps 751 mmHg 64%
    14:00 +19°C° 0.3 mm 4 mps 751 mmHg 65%
    15:00 +19°C° 0.3 mm 4 mps 751 mmHg 65%
    16:00 +19°C° 0.3 mm 3 mps 751 mmHg 66%
    17:00 +17°C° 0 mm 3 mps 752 mmHg 71%
    18:00 +16°C° 0 mm 2 mps 752 mmHg 76%
    19:00 +15°C° 0 mm 2 mps 752 mmHg 82%
    20:00 +14°C° 0 mm 1 mps 753 mmHg 83%
    21:00 +14°C° 0 mm 1 mps 753 mmHg 84%
    22:00 +14°C° 0 mm 1 mps 753 mmHg 86%
    23:00 +13°C° 0 mm 1 mps 753 mmHg 87%

    27 September, Friday

    Time Temperature Precipitation Wind Pressure Humidity
    00:00 +13°C° 0 mm 1 mps 753 mmHg 87%
    01:00 +13°C° 0 mm 2 mps 753 mmHg 88%
    02:00 +13°C° 0 mm 2 mps 754 mmHg 89%
    03:00 +12°C° 0 mm 2 mps 754 mmHg 90%
    04:00 +12°C° 0 mm 2 mps 754 mmHg 92%
    05:00 +12°C° 0 mm 2 mps 754 mmHg 91%
    06:00 +13°C° 0 mm 2 mps 754 mmHg 90%
    07:00 +13°C° 0 mm 2 mps 754 mmHg 89%
    08:00 +15°C° 0 mm 2 mps 754 mmHg 82%
    09:00 +17°C° 0 mm 2 mps 754 mmHg 76%
    10:00 +19°C° 0 mm 3 mps 754 mmHg 70%
    11:00 +19°C° 0 mm 3 mps 754 mmHg 68%
    12:00 +20°C° 0 mm 3 mps 753 mmHg 65%
    13:00 +21°C° 0 mm 4 mps 753 mmHg 63%
    14:00 +20°C° 0.1 mm 3 mps 753 mmHg 65%
    15:00 +20°C° 0.1 mm 3 mps 753 mmHg 67%
    16:00 +20°C° 0.1 mm 2 mps 752 mmHg 70%
    17:00 +19°C° 0.1 mm 2 mps 753 mmHg 75%
    18:00 +18°C° 0.1 mm 3 mps 753 mmHg 79%
    19:00 +17°C° 0.1 mm 3 mps 753 mmHg 84%
    20:00 +16°C° 0.3 mm 3 mps 753 mmHg 85%
    21:00 +16°C° 0.3 mm 3 mps 753 mmHg 86%
    22:00 +16°C° 0.3 mm 3 mps 752 mmHg 88%
    23:00 +16°C° 0.2 mm 3 mps 752 mmHg 88%

    28 September, Saturday

    Time Temperature Precipitation Wind Pressure Humidity
    00:00 +16°C° 0.2 mm 3 mps 752 mmHg 89%
    01:00 +16°C° 0.2 mm 3 mps 752 mmHg 90%
    02:00 +14°C° 0 mm 3 mps 752 mmHg 90%
    03:00 +14°C° 0 mm 4 mps 751 mmHg 89%
    04:00 +14°C° 0 mm 4 mps 751 mmHg 89%
    05:00 +15°C° 0 mm 5 mps 751 mmHg 88%
    06:00 +15°C° 0 mm 5 mps 751 mmHg 87%
    07:00 +15°C° 0 mm 6 mps 751 mmHg 86%
    08:00 +16°C° 0.2 mm 5 mps 751 mmHg 84%
    09:00 +16°C° 0.2 mm 5 mps 751 mmHg 82%
    10:00 +18°C° 0.2 mm 4 mps 751 mmHg 80%
    11:00 +17°C° 0.7 mm 5 mps 751 mmHg 78%
    12:00 +17°C° 0.7 mm 5 mps 751 mmHg 76%
    13:00 +19°C° 0.7 mm 6 mps 751 mmHg 74%
    14:00 +17°C° 0.3 mm 5 mps 751 mmHg 74%
    15:00 +18°C° 0.3 mm 4 mps 750 mmHg 73%
    16:00 +18°C° 0.3 mm 4 mps 750 mmHg 73%
    17:00 +17°C° 0 mm 3 mps 750 mmHg 76%
    18:00 +16°C° 0 mm 3 mps 750 mmHg 80%
    19:00 +14°C° 0 mm 3 mps 750 mmHg 83%
    20:00 +14°C° 0.1 mm 3 mps 750 mmHg 84%
    21:00 +14°C° 0.1 mm 3 mps 750 mmHg 84%
    22:00 +14°C° 0.1 mm 3 mps 750 mmHg 84%
    23:00 +14°C° 0 mm 3 mps 750 mmHg 82%
    Show more